Weather History for Plant City, FL

Change the Weather History Date:

Thursday, December 13, 2012

  Actual Average Record
Temperature  
Mean Temperature 64 °F -  
Max Temperature 71 °F 74 °F 89 °F (2007)
Min Temperature 57 °F 52 °F 18 °F (1962)
Degree Days  
Heating Degree Days 1    
Growing Degree Days 14 (Base 50)    
Moisture  
Dew Point 57 °F    
Average Humidity 83    
Maximum Humidity 100    
Minimum Humidity 77    
Precipitation  
Precipitation 0.00 in - - ()
Sea Level Pressure  
Sea Level Pressure 30.16 in    
Wind  
Wind Speed 6 mph (North)    
Max Wind Speed 12 mph    
Max Gust Speed 18 mph    
Visibility 9 miles    
Events      
Averages and records for this station are not official NWS values.
T = Trace of Precipitation, MM = Missing Value Source: NWS Daily Summary

Daily Weather History Graph

Daily Weather History Graph

Search for Another Location

Airport:

Trip Planner

Search our weather history database for the weather conditions in past years. The results will help you decide how hot, cold, wet, or windy it might be!

Date:

Astronomy

Dec. 13, 2012 Rise Set
Actual Time 7:11 AM EST 5:34 PM EST
Civil Twilight 6:45 AM EST 6:00 PM EST
Nautical Twilight 6:16 AM EST 6:29 PM EST
Astronomical Twilight 5:47 AM EST 6:58 PM EST
Moon 7:20 AM EST (12/13) 6:13 PM EST (12/13)
Length of Visible Light 11h 14m
Length of Day
10h 23m
New Moon, 0% of the Moon is Illuminated
Dec 13
New Moon
Dec 20
First Quarter
Dec 28
Full
Jan 4
Last Quarter
Jan 11
New

Hourly Weather History & Observations

Time (EST) Temp. Dew Point Humidity Pressure Visibility Wind Dir Wind Speed Gust Speed Precip Events Conditions
12:15 AM 71.6 °F - N/A% 30.09 in 1.0 mi NNW 5.8 mph - N/A   Overcast
12:35 AM 69.8 °F - N/A% 30.09 in 1.0 mi North 3.5 mph - N/A   Overcast
12:55 AM 69.8 °F - N/A% 30.09 in 0.8 mi North 3.5 mph - N/A   Overcast
1:15 AM 69.8 °F - N/A% 30.09 in 0.8 mi North 3.5 mph - N/A   Overcast
1:35 AM 69.8 °F - N/A% 30.09 in 0.8 mi NNW 4.6 mph - N/A   Overcast
1:55 AM 69.8 °F - N/A% 30.09 in 1.0 mi NNW 4.6 mph - N/A   Overcast
2:15 AM 69.8 °F - N/A% 30.09 in 5.0 mi NNW 5.8 mph - N/A   Haze
2:35 AM 68.0 °F - N/A% 30.09 in 5.0 mi NNW 4.6 mph - N/A   Haze
2:55 AM 68.0 °F - N/A% 30.09 in 7.0 mi NNW 4.6 mph - N/A   Overcast
3:15 AM 68.0 °F - N/A% 30.09 in 7.0 mi NNW 4.6 mph - N/A   Overcast
3:35 AM 68.0 °F - N/A% 30.09 in 5.0 mi North 5.8 mph - N/A   Haze
3:55 AM 68.0 °F - N/A% 30.09 in 5.0 mi NNW 4.6 mph - N/A   Haze
4:15 AM 68.0 °F - N/A% 30.09 in 7.0 mi North 3.5 mph - N/A   Overcast
4:35 AM 68.0 °F - N/A% 30.09 in 10.0 mi North 3.5 mph - N/A   Overcast
4:55 AM 68.0 °F - N/A% 30.09 in 10.0 mi North 5.8 mph - N/A   Overcast
5:15 AM 66.2 °F - N/A% 30.11 in 10.0 mi NNW 5.8 mph - N/A   Overcast
5:35 AM 66.2 °F - N/A% 30.12 in 10.0 mi North 5.8 mph - N/A   Overcast
5:55 AM 66.2 °F - N/A% 30.13 in 10.0 mi NNW 6.9 mph - N/A   Overcast
6:15 AM 66.2 °F - N/A% 30.14 in 10.0 mi North 4.6 mph - N/A   Overcast
6:35 AM 64.4 °F - N/A% 30.14 in 5.0 mi NW 9.2 mph - N/A   Haze
6:55 AM 64.4 °F - N/A% 30.15 in 7.0 mi NW 10.4 mph - N/A   Overcast
7:15 AM 64.4 °F - N/A% 30.15 in 10.0 mi NNW 6.9 mph - N/A   Overcast
7:35 AM 62.6 °F - N/A% 30.16 in 10.0 mi NNW 8.1 mph - N/A   Overcast
7:55 AM 62.6 °F - N/A% 30.17 in 10.0 mi North 9.2 mph - N/A   Overcast
8:15 AM 62.6 °F - N/A% 30.18 in 10.0 mi North 5.8 mph - N/A   Overcast
8:35 AM 64.4 °F - N/A% 30.18 in 10.0 mi North 4.6 mph - N/A   Overcast
8:55 AM 64.4 °F - N/A% 30.18 in 10.0 mi North 5.8 mph - N/A   Overcast
9:15 AM 64.4 °F - N/A% 30.19 in 10.0 mi NNW 4.6 mph - N/A   Overcast
9:35 AM 66.2 °F - N/A% 30.20 in 10.0 mi North 6.9 mph - N/A   Overcast
9:55 AM 64.4 °F 64.4 °F 100% 30.20 in 10.0 mi North 6.9 mph - N/A   Overcast
10:15 AM 64.4 °F 60.8 °F 88% 30.21 in 10.0 mi North 6.9 mph - N/A   Overcast
10:35 AM 66.2 °F 60.8 °F 83% 30.20 in 10.0 mi North 8.1 mph - N/A   Overcast
10:55 AM 66.2 °F 59.0 °F 78% 30.21 in 10.0 mi North 9.2 mph - N/A   Overcast
11:15 AM 64.4 °F 60.8 °F 88% 30.21 in 10.0 mi North 5.8 mph - N/A   Overcast
11:35 AM 66.2 °F 59.0 °F 78% 30.20 in 10.0 mi NNE 8.1 mph - N/A   Overcast
11:55 AM 66.2 °F 59.0 °F 78% 30.20 in 10.0 mi NNE 8.1 mph - N/A   Overcast
12:15 PM 66.2 °F 59.0 °F 78% 30.19 in 10.0 mi NE 6.9 mph 16.1 mph N/A   Overcast
12:35 PM 66.2 °F 59.0 °F 78% 30.19 in 10.0 mi NNE 4.6 mph - N/A   Overcast
12:55 PM 66.2 °F 59.0 °F 78% 30.20 in 10.0 mi NNE 5.8 mph 10.4 mph N/A   Overcast
1:15 PM 64.4 °F 59.0 °F 83% 30.19 in 10.0 mi NNW 8.1 mph - N/A   Overcast
1:35 PM 64.4 °F 59.0 °F 83% 30.18 in 10.0 mi North 4.6 mph - N/A   Overcast
1:55 PM 64.4 °F 57.2 °F 77% 30.17 in 10.0 mi NE 6.9 mph - N/A   Overcast
2:15 PM 64.4 °F 59.0 °F 83% 30.17 in 10.0 mi NNE 8.1 mph - N/A   Overcast
2:35 PM 64.4 °F 57.2 °F 77% 30.17 in 10.0 mi NNE 8.1 mph - N/A   Overcast
2:55 PM 64.4 °F 57.2 °F 77% 30.17 in 10.0 mi NNE 10.4 mph - N/A   Overcast
3:15 PM 64.4 °F 57.2 °F 77% 30.17 in 10.0 mi NE 5.8 mph - N/A   Overcast
3:35 PM 64.4 °F 57.2 °F 77% 30.17 in 10.0 mi NE 5.8 mph - N/A   Overcast
3:55 PM 64.4 °F 57.2 °F 77% 30.17 in 10.0 mi NE 5.8 mph - N/A   Overcast
4:15 PM 64.4 °F 57.2 °F 77% 30.16 in 10.0 mi NE 5.8 mph - N/A   Overcast
4:35 PM 64.4 °F 57.2 °F 77% 30.16 in 10.0 mi NNE 6.9 mph - N/A   Overcast
4:55 PM 62.6 °F 57.2 °F 82% 30.17 in 10.0 mi NE 8.1 mph - N/A   Overcast
5:15 PM 62.6 °F 57.2 °F 82% 30.18 in 10.0 mi NE 9.2 mph - N/A   Overcast
5:35 PM 62.6 °F 55.4 °F 77% 30.18 in 10.0 mi NE 10.4 mph - N/A   Overcast
7:15 PM 59.0 °F 55.4 °F 88% 30.21 in 10.0 mi NE 9.2 mph 16.1 mph N/A   Overcast
8:15 PM 59.0 °F 53.6 °F 82% 30.22 in 10.0 mi NNE 4.6 mph - N/A   Overcast
8:35 PM 59.0 °F 53.6 °F 82% 30.23 in 10.0 mi North 8.1 mph - N/A   Overcast
8:55 PM 57.2 °F 53.6 °F 88% 30.22 in 10.0 mi North 9.2 mph - N/A   Overcast
9:15 PM 57.2 °F 53.6 °F 88% 30.22 in 10.0 mi NNE 9.2 mph - N/A   Overcast
9:35 PM 57.2 °F 53.6 °F 88% 30.22 in 10.0 mi NNE 5.8 mph - N/A   Scattered Clouds
9:55 PM 57.2 °F 53.6 °F 88% 30.22 in 10.0 mi NNE 9.2 mph 17.3 mph N/A   Mostly Cloudy
10:15 PM 57.2 °F 53.6 °F 88% 30.22 in 10.0 mi NNE 8.1 mph - N/A   Overcast
10:35 PM 57.2 °F 53.6 °F 88% 30.22 in 10.0 mi NNE 11.5 mph 18.4 mph N/A   Overcast
10:55 PM 57.2 °F 53.6 °F 88% 30.22 in 10.0 mi NE 5.8 mph 9.2 mph N/A   Overcast
11:15 PM 57.2 °F 53.6 °F 88% 30.22 in 10.0 mi NE 10.4 mph 17.3 mph N/A   Overcast
11:35 PM 57.2 °F 53.6 °F 88% 30.22 in 10.0 mi NNE 6.9 mph - N/A   Overcast
11:55 PM 57.2 °F 53.6 °F 88% 30.21 in 10.0 mi NNE 8.1 mph - N/A   Overcast